TimeCST,TemperatureF,Dew PointF,Humidity,Sea Level PressureIn,VisibilityMPH,Wind Direction,Wind SpeedMPH,Gust SpeedMPH,PrecipitationIn,Events,Conditions,WindDirDegrees,DateUTC
12:53 AM,32.0,28.9,88,30.27,10.0,Calm,Calm,-,N/A,,Clear,0,2013-01-10 06:53:00
1:53 AM,34.0,30.9,89,30.25,10.0,Calm,Calm,-,N/A,,Overcast,0,2013-01-10 07:53:00
2:53 AM,33.1,30.0,89,30.22,10.0,Calm,Calm,-,N/A,,Overcast,0,2013-01-10 08:53:00
4:37 AM,35.6,32.0,87,30.12,10.0,ENE,4.6,-,0.00,Rain,Light Rain,70,2013-01-10 10:37:00
4:53 AM,35.1,32.0,89,30.13,10.0,East,4.6,-,0.00,,Overcast,80,2013-01-10 10:53:00
5:13 AM,35.6,32.0,87,30.08,10.0,East,3.5,-,N/A,,Overcast,80,2013-01-10 11:13:00
5:29 AM,35.6,32.0,87,30.07,10.0,ENE,4.6,-,N/A,,Overcast,70,2013-01-10 11:29:00
5:53 AM,36.0,32.0,86,30.08,10.0,NE,5.8,-,N/A,,Overcast,50,2013-01-10 11:53:00
6:03 AM,35.6,32.0,87,30.04,10.0,ENE,5.8,-,N/A,,Overcast,60,2013-01-10 12:03:00
6:53 AM,35.1,32.0,89,30.06,10.0,East,3.5,-,N/A,,Overcast,100,2013-01-10 12:53:00
7:53 AM,34.0,32.0,92,30.05,8.0,Calm,Calm,-,0.00,,Overcast,0,2013-01-10 13:53:00
8:14 AM,33.8,33.8,100,30.00,2.5,Calm,Calm,-,N/A,,Overcast,0,2013-01-10 14:14:00
8:33 AM,33.8,33.8,100,30.01,1.5,ESE,3.5,-,N/A,,Overcast,120,2013-01-10 14:33:00
8:53 AM,33.1,33.1,100,30.04,1.5,Calm,Calm,-,0.00,Rain,Light Rain,0,2013-01-10 14:53:00
9:04 AM,33.8,33.8,100,30.00,1.2,ESE,3.5,-,0.00,,Overcast,120,2013-01-10 15:04:00
9:53 AM,33.1,33.1,100,30.01,1.0,Calm,Calm,-,0.00,,Overcast,0,2013-01-10 15:53:00
10:25 AM,33.8,33.8,100,29.95,1.8,Calm,Calm,-,0.01,Rain,Light Rain,0,2013-01-10 16:25:00
10:53 AM,34.0,34.0,100,29.98,0.8,Calm,Calm,-,0.01,Rain,Light Rain,0,2013-01-10 16:53:00
11:22 AM,33.8,33.8,100,29.92,0.2,Calm,Calm,-,0.00,Fog,Fog,0,2013-01-10 17:22:00
11:53 AM,34.0,34.0,100,29.94,0.2,Calm,Calm,-,0.00,Fog,Fog,0,2013-01-10 17:53:00
12:53 PM,35.1,35.1,100,29.89,0.2,Calm,Calm,-,N/A,Fog,Fog,0,2013-01-10 18:53:00
1:53 PM,36.0,36.0,100,29.84,0.2,Calm,Calm,-,N/A,Fog,Fog,0,2013-01-10 19:53:00
2:06 PM,37.4,35.6,93,29.79,0.5,SE,3.5,-,N/A,Fog,Fog,130,2013-01-10 20:06:00
2:21 PM,37.4,37.4,100,29.79,1.2,SE,6.9,-,N/A,,Overcast,140,2013-01-10 20:21:00
2:28 PM,37.4,37.4,100,29.78,2.0,SE,6.9,-,N/A,,Overcast,140,2013-01-10 20:28:00
2:38 PM,37.4,37.4,100,29.77,3.0,SSE,6.9,-,N/A,,Overcast,160,2013-01-10 20:38:00
2:53 PM,37.9,37.9,100,29.81,4.0,South,5.8,-,N/A,,Overcast,170,2013-01-10 20:53:00
3:12 PM,37.4,37.4,100,29.77,2.5,SSE,5.8,-,N/A,,Overcast,160,2013-01-10 21:12:00
3:27 PM,37.4,37.4,100,29.77,1.2,SSE,3.5,-,N/A,,Overcast,150,2013-01-10 21:27:00
3:53 PM,37.9,37.9,100,29.80,1.5,SSE,6.9,-,N/A,,Overcast,150,2013-01-10 21:53:00
3:57 PM,37.4,37.4,100,29.76,3.0,SSE,5.8,-,N/A,,Overcast,160,2013-01-10 21:57:00
4:20 PM,37.4,37.4,100,29.78,1.8,SSW,4.6,-,N/A,,Overcast,200,2013-01-10 22:20:00
4:38 PM,37.4,37.4,100,29.76,0.8,SSW,5.8,-,N/A,,Overcast,210,2013-01-10 22:38:00
4:53 PM,37.9,37.9,100,29.78,1.8,South,6.9,-,N/A,,Overcast,190,2013-01-10 22:53:00
4:55 PM,37.4,37.4,100,29.75,3.0,South,5.8,-,N/A,,Overcast,190,2013-01-10 22:55:00
5:25 PM,37.4,37.4,100,29.74,10.0,SSW,10.4,-,N/A,,Overcast,210,2013-01-10 23:25:00
5:53 PM,37.9,37.9,100,29.76,10.0,SSW,8.1,-,N/A,,Overcast,200,2013-01-10 23:53:00
6:51 PM,37.4,37.4,100,29.70,10.0,South,4.6,-,N/A,,Overcast,180,2013-01-11 00:51:00
6:53 PM,37.9,37.9,100,29.74,10.0,South,3.5,-,N/A,,Overcast,190,2013-01-11 00:53:00
7:53 PM,37.9,37.9,100,29.74,6.0,South,3.5,-,N/A,,Overcast,190,2013-01-11 01:53:00
8:29 PM,37.4,37.4,100,29.69,2.0,South,4.6,-,N/A,,Overcast,190,2013-01-11 02:29:00
8:49 PM,37.4,37.4,100,29.69,3.0,South,5.8,-,N/A,,Overcast,190,2013-01-11 02:49:00
8:53 PM,37.9,37.9,100,29.73,4.0,SSW,6.9,-,N/A,,Overcast,200,2013-01-11 02:53:00
9:27 PM,37.4,37.4,100,29.65,2.0,SSE,6.9,-,N/A,,Overcast,160,2013-01-11 03:27:00
9:38 PM,37.4,37.4,100,29.65,1.8,SSE,8.1,-,N/A,,Overcast,160,2013-01-11 03:38:00
9:53 PM,37.0,37.0,100,29.67,0.8,SSE,6.9,-,N/A,,Mist,150,2013-01-11 03:53:00
11:12 PM,37.4,37.4,100,29.63,1.0,South,9.2,-,N/A,,Mist,190,2013-01-11 05:12:00
11:24 PM,37.4,37.4,100,29.63,0.8,South,9.2,-,N/A,,Mist,190,2013-01-11 05:24:00
11:53 PM,37.0,37.0,100,29.65,0.8,South,9.2,-,N/A,,Mist,190,2013-01-11 05:53:00